This is the latest recevied weather packets stored in our database for station/object KF5WCW-1. If no packets are shown the sender has not sent any weather packets the latest 10 day(s).
| Time | Temp. | Humidity | Pressure | Rain* | Wind** | Luminosity | Snow |
|---|---|---|---|---|---|---|---|
| 1777362986 | 0° C | 87% | 0 hPa | 0 mm | - | - | - |
| 1777362686 | 0° C | 87% | 0 hPa | 0 mm | - | - | - |
| 1777362386 | 0° C | 86% | 0 hPa | 0 mm | - | - | - |
| 1777362086 | 0.56° C | 87% | 0 hPa | 0 mm | - | - | - |
| 1777361786 | 0.56° C | 86% | 0 hPa | 0 mm | - | - | - |
| 1777361486 | 1.11° C | 86% | 0 hPa | 0 mm | - | - | - |
| 1777361186 | 1.11° C | 86% | 0 hPa | 0 mm | - | - | - |
| 1777360886 | 1.11° C | 86% | 0 hPa | 0 mm | - | - | - |
| 1777360586 | 1.11° C | 87% | 0 hPa | 0 mm | - | - | - |
| 1777360286 | 1.11° C | 88% | 0 hPa | 0 mm | - | - | - |
| 1777359986 | 1.11° C | 90% | 0 hPa | 0 mm | - | - | - |
| 1777359686 | 1.11° C | 90% | 0 hPa | 0 mm | - | - | - |
| 1777359386 | 1.67° C | 85% | 0 hPa | 0 mm | - | - | - |
| 1777359086 | 1.67° C | 86% | 0 hPa | 0 mm | - | - | - |
| 1777358786 | 1.67° C | 86% | 0 hPa | 0 mm | - | - | - |
| 1777358486 | 1.11° C | 84% | 0 hPa | 0 mm | - | - | - |
| 1777358186 | 1.11° C | 86% | 0 hPa | 0 mm | - | - | - |
| 1777357886 | 1.11° C | 86% | 0 hPa | 0 mm | - | - | - |
| 1777357586 | 1.11° C | 84% | 0 hPa | 0 mm | - | - | - |
| 1777357286 | 1.67° C | 86% | 0 hPa | 0 mm | - | - | - |
| 1777356986 | 2.22° C | 85% | 0 hPa | 0 mm | - | - | - |
| 1777356686 | 2.22° C | 84% | 0 hPa | 0 mm | - | - | - |
| 1777356386 | 2.22° C | 84% | 0 hPa | 0 mm | - | - | - |
| 1777356086 | 2.22° C | 82% | 0 hPa | 0 mm | - | - | - |
| 1777355786 | 2.78° C | 81% | 0 hPa | 0 mm | - | - | - |
* Rain latest hour (hover to see other rain measurements)
** Current wind speed in m/s (hover to see current wind gust speed)